Location: Altleiningen
(49.5078°N, 8.0741°E)
Time: 10:00:12
(UTC+00:00)

USA 308 - Pass Details

Date: 03 March 2021
Orbit: 568 x 576 km, 54.0° (Epoch: 13 April)

Event Time Altitude Azimuth Distance (km) Brightness Sun altitude
Rises 18:26:40 0° 274° (W) 2,777 8.6 -12.6°
Reaches altitude 10° 18:29:00 10° 281° (W) 1,878 7.0 -13.0°
Maximum altitude 18:33:07 46° 355° (N) 776 3.6 -13.6°
Enters shadow 18:35:58 18° 62° (ENE) 1,415 4.4 -14.1°
